This demonstration page uses our WeatherBlox Daily Observations layout. Learn more.

Left ArrowRight Arrow

39.01783, -85.05884

Hourly Observations for August 1, 2016

Temp ( °F °C ) Dew Point ( °F °C ) Humidity (%) Winds ( mph kmh ) Pressure ( in mb ) Visibility ( mi km ) Precip ( " mm )
12:52 am 00:52 Mostly Clear 73 22.8 70 21.1 90 90 SW 5 7 30.03 1017 10 16 N/A
1:52 am 01:52 Mostly Clear 70 21.1 69 20.6 97 97 N N/A 30.03 1017 8 13 N/A
2:52 am 02:52 Mostly Clear 71 21.7 70 21.1 96 96 N N/A 30.02 1017 8 13 N/A
3:52 am 03:52 Mostly Clear 69 20.6 69 20.6 100 100 SSW 3 6 30.02 1017 7 11 N/A
4:52 am 04:52 Clear with Mist and Fog 67 19.4 67 19.4 100 100 S 3 6 30.02 1017 6 10 N/A
5:52 am 05:52 Mostly Cloudy with Mist and Fog 70 21.1 69 20.6 97 97 N N/A 30.03 1017 6 10 N/A
6:52 am 06:52 Mostly Cloudy with Mist and Fog 70 21.1 70 21.1 100 100 N N/A 30.04 1017 6 10 N/A
7:52 am 07:52 Mostly Cloudy 72 22.2 71 21.7 97 97 N N/A 30.04 1017 7 11 N/A
8:52 am 08:52 Mostly Cloudy 74 23.3 73 22.8 97 97 N N/A 30.05 1018 8 13 N/A
9:52 am 09:52 Mostly Cloudy 79 26.1 72 22.2 79 79 N N/A 30.05 1018 10 16 N/A
10:52 am 10:52 Mostly Cloudy 82 27.8 71 21.7 69 69 S 6 9 30.05 1018 10 16 N/A
11:52 am 11:52 Cloudy 82 27.8 70 21.1 67 67 S 6 9 30.05 1018 10 16 N/A
12:52 pm 12:52 Cloudy 83 28.3 70 21.1 65 65 SSW 5 7 30.05 1018 9 14 N/A
1:52 pm 13:52 Cloudy with Thunderstorms 79 26.1 73 22.8 82 82 SSW 7 11 30.06 1018 8 13 N/A
2:03 pm 14:03 Cloudy with Thunderstorms 77 25 73 23 89 89 SW 10 17 30.06 1018 4 6 N/A
2:09 pm 14:09 Cloudy with Strong Thunderstorms 75 24 72 22 89 89 SW 12 19 30.09 1019 3 4 0.04 1.02
2:22 pm 14:22 Cloudy with Strong Thunderstorms 72 22 72 22 100 100 SSW 14 22 30.09 1019 1 2 N/A
2:52 pm 14:52 Cloudy with Thunderstorms 72 22.2 71 21.7 97 97 N N/A 30.07 1018 3 4 0.38 9.65
3:13 pm 15:13 Cloudy with Light Rain 73 23 72 22 94 94 N 3 6 30.06 1018 6 10 0.01 0.25
3:52 pm 15:52 Cloudy 75 23.9 71 21.7 88 88 W 3 6 30.04 1017 10 16 0.01 0.25
4:52 pm 16:52 Cloudy 78 25.6 71 21.7 79 79 N N/A 30.03 1017 10 16 N/A
5:52 pm 17:52 Mostly Cloudy 80 26.7 70 21.1 71 71 ENE 5 7 30.01 1016 10 16 N/A
6:52 pm 18:52 Partly Cloudy 80 26.7 71 21.7 74 74 S 6 9 30.00 1016 10 16 N/A
7:52 pm 19:52 Mostly Cloudy 82 28 66 19 58 58 W 3 6 29.94 1014 10 16 N/A
8:52 pm 20:52 Mostly Cloudy 76 24.4 72 22.2 88 88 SSW 3 6 30.02 1017 10 16 N/A
9:52 pm 21:52 Cloudy 76 24.4 73 22.8 91 91 N N/A 30.02 1017 10 16 N/A
10:52 pm 22:52 Partly Cloudy 75 23.9 72 22.2 90 90 N N/A 30.03 1017 10 16 N/A
11:52 pm 23:52 Partly Cloudy 73 22.8 72 22.2 96 96 SSE 3 6 30.04 1017 8 13 N/A

Powered by AerisWeather